Coffeyville, KS

7:11 PM CDT on September 20, 2017 (GMT -0500)
Coffeyville Municipal

Weather History for KCFV - December, 2013

Change the Weather History Date:

Tuesday, December 24, 2013

  Actual Average Record
Temperature  
Mean Temperature 22 °F -  
Max Temperature 33 °F 43 °F 55 °F (2015)
Min Temperature 12 °F 22 °F 6 °F (2000)
Degree Days  
Heating Degree Days 42    
Moisture  
Dew Point 21 °F    
Average Humidity 89    
Maximum Humidity 100    
Minimum Humidity 84    
Precipitation  
Precipitation 0.00 in - - ()
Sea Level Pressure  
Sea Level Pressure 30.42 in    
Wind  
Wind Speed 6 mph (SSE)    
Max Wind Speed 15 mph    
Max Gust Speed -    
Visibility 6 miles    
Events      
Averages and records for this station are not official NWS values.
T = Trace of Precipitation, MM = Missing Value Source: NWS Daily Summary

Daily Weather History Graph

Daily Weather History Graph

Search for Another Location

Airport or City:

Trip Planner

Search our weather history database for the weather conditions in past years. The results will help you decide how hot, cold, wet, or windy it might be!

Date:

Astronomy

Dec. 24, 2013 Rise Set
Actual Time 7:33 AM CST 5:10 PM CST
Civil Twilight 7:04 AM CST 5:39 PM CST
Nautical Twilight 6:31 AM CST 6:12 PM CST
Astronomical Twilight 6:00 AM CST 6:44 PM CST
Moon No Moon Rise 11:37 AM CST (12/24)
Length of Visible Light 10h 35m
Length of Day
9h 37m
Waning Gibbous, 58% of the Moon is Illuminated
Dec 24
Waning Gibbous
Dec 25
Last Quarter
Jan 1
New
Jan 7
First Quarter
Jan 15
Full

Hourly Weather History & Observations

Time (CST) Temp. Windchill Dew Point Humidity Pressure Visibility Wind Dir Wind Speed Gust Speed Precip Events Conditions
12:52 AM 12.9 °F 3.8 °F 10.0 °F 88% 30.63 in 9.0 mi NE 5.8 mph - N/A   Clear
1:52 AM 14.0 °F 8.2 °F 10.0 °F 84% 30.63 in 10.0 mi East 3.5 mph - N/A   Clear
2:52 AM 12.9 °F - 10.0 °F 88% 30.63 in 10.0 mi Calm Calm - N/A   Clear
3:52 AM 12.9 °F 3.8 °F 9.0 °F 84% 30.60 in 10.0 mi East 5.8 mph - N/A   Clear
4:52 AM 12.9 °F - 10.0 °F 88% 30.59 in 10.0 mi Calm Calm - N/A   Clear
5:52 AM 12.0 °F 5.9 °F 9.0 °F 88% 30.57 in 10.0 mi South 3.5 mph - N/A   Clear
6:52 AM 12.9 °F 5.2 °F 9.0 °F 84% 30.55 in 9.0 mi East 4.6 mph - N/A   Clear
7:52 AM 12.9 °F 5.2 °F 10.0 °F 88% 30.55 in 7.0 mi SSE 4.6 mph - N/A   Clear
8:32 AM 14.0 °F 2.9 °F 12.0 °F 92% 30.50 in 6.0 mi SE 8.1 mph - N/A   Partly Cloudy
8:52 AM 15.1 °F 4.2 °F 12.0 °F 88% 30.54 in 5.0 mi SSE 8.1 mph - N/A   Scattered Clouds
8:59 AM 15.1 °F 4.2 °F 12.9 °F 91% 30.50 in 4.0 mi SE 8.1 mph - N/A   Mostly Cloudy
9:52 AM 19.0 °F 8.2 °F 18.0 °F 96% 30.53 in 5.0 mi SSE 9.2 mph - N/A   Mostly Cloudy
10:13 AM 21.0 °F 9.9 °F 19.0 °F 92% 30.48 in 6.0 mi SE 10.4 mph - N/A   Partly Cloudy
10:52 AM 25.0 °F 13.6 °F 21.0 °F 85% 30.49 in 6.0 mi SSE 12.7 mph - N/A   Clear
11:52 AM 27.0 °F 16.7 °F 23.0 °F 85% 30.44 in 6.0 mi SSE 11.5 mph - N/A   Clear
12:52 PM 30.0 °F 21.1 °F 26.1 °F 85% 30.38 in 6.0 mi South 10.4 mph - N/A   Scattered Clouds
1:07 PM 30.0 °F 20.0 °F 26.1 °F 85% 30.34 in 6.0 mi South 12.7 mph - N/A   Mostly Cloudy
1:52 PM 30.0 °F 19.1 °F 27.0 °F 88% 30.34 in 5.0 mi SSE 15.0 mph - N/A   Mostly Cloudy
2:41 PM 32.0 °F 22.1 °F 28.0 °F 85% 30.27 in 5.0 mi South 13.8 mph - N/A   Scattered Clouds
2:52 PM 32.0 °F 23.6 °F 28.9 °F 88% 30.31 in 5.0 mi South 10.4 mph - N/A   Scattered Clouds
3:08 PM 32.0 °F 24.2 °F 30.0 °F 92% 30.27 in 5.0 mi South 9.2 mph - N/A   Mostly Cloudy
3:28 PM 33.1 °F 24.9 °F 30.0 °F 89% 30.26 in 5.0 mi South 10.4 mph - N/A   Scattered Clouds
3:52 PM 33.1 °F 26.9 °F 30.0 °F 89% 30.29 in 5.0 mi South 6.9 mph - N/A   Clear
4:52 PM 32.0 °F 28.7 °F 30.0 °F 92% 30.27 in 4.0 mi SSE 3.5 mph - N/A   Clear
5:52 PM 30.9 °F 26.2 °F 28.9 °F 92% 30.23 in 4.0 mi ESE 4.6 mph - N/A   Clear
6:52 PM 28.0 °F 24.2 °F 26.1 °F 92% 30.25 in 4.0 mi NNW 3.5 mph - N/A   Clear
7:52 PM 28.0 °F 24.2 °F 27.0 °F 96% 30.27 in 5.0 mi SSW 3.5 mph - N/A   Clear
8:52 PM 28.0 °F 21.7 °F 26.1 °F 92% 30.30 in 4.0 mi NW 5.8 mph - N/A   Clear
9:52 PM 28.9 °F - 28.9 °F 100% 30.32 in 4.0 mi Calm Calm - N/A   Overcast
10:52 PM 28.9 °F - 27.0 °F 92% 30.32 in 3.0 mi Calm Calm - N/A   Overcast
11:52 PM 28.9 °F - 28.0 °F 96% 30.32 in 3.0 mi Calm Calm - N/A   Overcast